| time (UTC) | temp C | wind direction | speed KPH | gust KPH | rain 1hr cm | rain 24hr cm | rain mn cm | humidity % | barometer mb |
| 20260504043040 | 2 | 355 | 0.0 | 0.0 | 0.00 | 0.00 | 0.00 | 77 | 1009.5 |
| 20260504041536 | 3 | 355 | 0.0 | 0.0 | 0.00 | 0.00 | 0.00 | 74 | 1009.4 |
| 20260504040033 | 3 | 355 | 0.0 | 0.0 | 0.00 | 0.00 | 0.00 | 74 | 1009.2 |
| 20260504034539 | 3 | 355 | 0.0 | 0.0 | 0.00 | 0.00 | 0.00 | 74 | 1009.2 |
| 20260504033031 | 3 | 355 | 0.0 | 0.0 | 0.00 | 0.00 | 0.00 | 73 | 1009.2 |
| 20260504031530 | 3 | 355 | 0.0 | 0.0 | 0.00 | 0.00 | 0.00 | 74 | 1009.1 |
| 20260504030037 | 4 | 355 | 0.0 | 0.0 | 0.00 | 0.00 | 0.00 | 72 | 1009.1 |
| 20260504024527 | 4 | 355 | 0.0 | 0.0 | 0.00 | 0.00 | 0.00 | 71 | 1009.0 |
| 20260504023025 | 4 | 355 | 0.0 | 0.0 | 0.00 | 0.00 | 0.00 | 70 | 1009.0 |
| 20260504021527 | 4 | 355 | 0.0 | 0.0 | 0.00 | 0.00 | 0.00 | 69 | 1008.8 |
| 20260504020020 | 5 | 355 | 0.0 | 0.0 | 0.00 | 0.00 | 0.00 | 65 | 1008.7 |
| 20260504014517 | 6 | 355 | 0.0 | 0.0 | 0.00 | 0.00 | 0.00 | 60 | 1008.7 |
| 20260504013014 | 6 | 355 | 0.0 | 0.0 | 0.00 | 0.00 | 0.00 | 59 | 1008.6 |
| 20260504011511 | 7 | 355 | 0.0 | 0.0 | 0.00 | 0.00 | 0.00 | 57 | 1008.5 |
| 20260504010009 | 7 | 355 | 0.0 | 0.0 | 0.00 | 0.00 | 0.00 | 53 | 1008.3 |
| 20260504004519 | 8 | 355 | 0.0 | 0.0 | 0.00 | 0.00 | 0.00 | 50 | 1008.1 |
| 20260504003009 | 9 | 5 | 0.0 | 9.7 | 0.00 | 0.00 | 0.00 | 47 | 1007.8 |
| 20260504001508 | 10 | 342 | 0.0 | 8.0 | 0.00 | 0.00 | 0.00 | 44 | 1007.7 |
| 20260504000008 | 10 | 318 | 0.0 | 9.7 | 0.00 | 0.00 | 0.00 | 44 | 1007.5 |
| 20260503234512 | 10 | 327 | 0.0 | 19.3 | 0.00 | 0.00 | 0.00 | 44 | 1007.2 |
| 20260503233005 | 10 | 295 | 1.6 | 14.5 | 0.00 | 0.00 | 0.00 | 41 | 1007.0 |
| 20260503231506 | 11 | 340 | 6.4 | 17.7 | 0.00 | 0.00 | 0.00 | 41 | 1006.8 |
| 20260503230005 | 11 | 275 | 1.6 | 11.3 | 0.00 | 0.00 | 0.00 | 42 | 1006.7 |
| 20260503224503 | 11 | 336 | 1.6 | 16.1 | 0.00 | 0.00 | 0.00 | 43 | 1006.4 |
| 20260503223003 | 11 | 334 | 1.6 | 17.7 | 0.00 | 0.00 | 0.00 | 42 | 1006.2 |
| 20260503221503 | 11 | 331 | 3.2 | 19.3 | 0.00 | 0.00 | 0.00 | 41 | 1005.9 |
| 20260503220009 | 11 | 324 | 3.2 | 25.7 | 0.00 | 0.00 | 0.00 | 41 | 1005.7 |
| 20260503214502 | 11 | 332 | 1.6 | 19.3 | 0.00 | 0.00 | 0.00 | 40 | 1005.4 |
| 20260503213003 | 12 | 338 | 4.8 | 25.7 | 0.00 | 0.00 | 0.00 | 41 | 1005.2 |
| 20260503211600 | 12 | 319 | 1.6 | 16.1 | 0.00 | 0.00 | 0.00 | 43 | 1004.9 |
| 20260503210105 | 12 | 57 | 4.8 | 19.3 | 0.00 | 0.00 | 0.00 | 42 | 1004.7 |
| 20260503204559 | 11 | 300 | 4.8 | 20.9 | 0.00 | 0.00 | 0.00 | 43 | 1004.7 |
| 20260503203103 | 11 | 317 | 1.6 | 17.7 | 0.00 | 0.00 | 0.00 | 49 | 1004.5 |
| 20260503201557 | 11 | 337 | 4.8 | 19.3 | 0.00 | 0.00 | 0.00 | 46 | 1004.4 |
| 20260503200058 | 11 | 271 | 6.4 | 17.7 | 0.00 | 0.00 | 0.00 | 47 | 1004.3 |
| 20260503194555 | 12 | 279 | 3.2 | 14.5 | 0.00 | 0.00 | 0.00 | 46 | 1004.4 |
| 20260503193057 | 12 | 12 | 1.6 | 19.3 | 0.00 | 0.00 | 0.00 | 51 | 1004.4 |
| 20260503191549 | 12 | 24 | 1.6 | 12.9 | 0.00 | 0.00 | 0.00 | 51 | 1004.5 |
| 20260503190048 | 11 | 271 | 4.8 | 12.9 | 0.00 | 0.00 | 0.00 | 54 | 1004.6 |
| 20260503184558 | 11 | 326 | 4.8 | 16.1 | 0.00 | 0.00 | 0.00 | 55 | 1004.7 |
| 20260503183057 | 11 | 331 | 3.2 | 24.1 | 0.00 | 0.00 | 0.00 | 52 | 1004.6 |
| 20260503181549 | 11 | 355 | 3.2 | 19.3 | 0.00 | 0.00 | 0.00 | 52 | 1004.6 |
| 20260503180045 | 11 | 331 | 6.4 | 17.7 | 0.00 | 0.00 | 0.00 | 53 | 1004.5 |
| 20260503174543 | 10 | 308 | 4.8 | 22.5 | 0.00 | 0.00 | 0.00 | 58 | 1004.6 |
| 20260503173047 | 10 | 223 | 3.2 | 14.5 | 0.00 | 0.00 | 0.00 | 60 | 1004.7 |
| 20260503171539 | 10 | 223 | 4.8 | 14.5 | 0.00 | 0.00 | 0.00 | 60 | 1004.7 |
| 20260503081545 | 8 | 325 | 0.0 | 9.7 | 0.00 | 0.00 | 0.00 | 78 | 1006.1 |
| 20260503071528 | 8 | 311 | 0.0 | 6.4 | 0.00 | 0.00 | 0.00 | 77 | 1006.9 |
| 20260503054516 | 9 | 348 | 0.0 | 6.4 | 0.00 | 0.00 | 0.00 | 81 | 1007.6 |
| 20260503053014 | 9 | 248 | 0.0 | 4.8 | 0.00 | 0.00 | 0.00 | 83 | 1007.7 |
| 20260503051510 | 9 | 314 | 0.0 | 1.6 | 0.00 | 0.00 | 0.00 | 87 | 1007.7 |
| 20260503050024 | 9 | 144 | 0.0 | 1.6 | 0.00 | 0.00 | 0.00 | 88 | 1008.1 |
| 20260503044506 | 9 | 144 | 0.0 | 1.6 | 0.00 | 0.00 | 0.00 | 88 | 1008.2 |